sat.trackr.live / text

‹ back to catalog

STARLINK-4350

NORAD 53045 · 2022-077C

PAYLOAD ACTIVE UNKNOWN

§ Identity

Operator
Country
US
Launch date
2022-07-11
Launch site
AFWTR
Launch vehicle
Mass (kg)
RCS (m²)

Purposes: comms

External: N2YO · Heavens-Above · Gunter

§ Orbital elements

Epoch: 2026-09-19T22:38:39.899040Z

Period
93.91 min
Inclination
97.2845°
Eccentricity
0.0001693
Mean motion
15.33438341 rev/d
Perigee alt
464.4 km
Apogee alt
466.7 km
Semi-major
6,843.7 km
B*
2.0074e-5
RAAN
78.6975°
Arg perigee
87.7216°
Mean anomaly
272.4220°
Rev number
23,027

§ Raw data

STARLINK-43501 53045U 22077C   26262.94351735  .00000573  00000+0  20074-4 0  99912 53045  97.2845  78.6975 0001693  87.7216 272.4220 15.33438341230274

JSON: /api/v1/satellites/53045 · /tle

For live sub-satellite position, see the globe view (requires WebGL).

§ Visibility from observer

Set your observer location to see the next 7 days of passes ≥ 10°. The values pass through the URL so the page stays shareable.

No JS? Fill the form by hand. The geolocation button needs JavaScript.